| time (UTC) | temp F | wind direction | speed MPH | gust MPH | rain 1hr in | rain 24hr in | rain mn in | humidity % | barometer mb |
| 20260507070016 | 66 | 0.0 | 1.0 | 0.00 | 0.08 | 0.00 | 89 | 1010.1 | |
| 20260507064516 | 66 | 0.0 | 0.0 | 0.00 | 0.08 | 0.00 | 89 | 1009.7 | |
| 20260507063016 | 66 | 0.0 | 0.0 | 0.00 | 0.08 | 0.00 | 88 | 1009.5 | |
| 20260507061516 | 67 | 0.0 | 0.0 | 0.00 | 0.08 | 0.00 | 88 | 1009.1 | |
| 20260507060015 | 67 | 0.0 | 0.0 | 0.00 | 0.08 | 0.00 | 87 | 1009.0 | |
| 20260507054516 | 67 | 0.0 | 0.0 | 0.00 | 0.08 | 0.00 | 87 | 1008.8 | |
| 20260507053036 | 67 | 0.0 | 0.0 | 0.00 | 0.08 | 0.00 | 86 | 1009.1 | |
| 20260507051535 | 67 | 0.0 | 0.0 | 0.00 | 0.08 | 0.00 | 86 | 1009.3 | |
| 20260507050015 | 67 | 0.0 | 0.0 | 0.00 | 0.08 | 0.00 | 86 | 1009.8 | |
| 20260507044516 | 67 | 0.0 | 0.0 | 0.00 | 0.08 | 0.00 | 86 | 1010.1 | |
| 20260507043036 | 67 | 0.0 | 0.0 | 0.00 | 0.08 | 0.00 | 86 | 1010.3 | |
| 20260507041536 | 67 | 0.0 | 0.0 | 0.00 | 0.08 | 0.00 | 87 | 1009.9 | |
| 20260507040016 | 67 | 0.0 | 0.0 | 0.00 | 0.08 | 0.08 | 87 | 1009.8 | |
| 20260507034516 | 67 | 0.0 | 0.0 | 0.00 | 0.08 | 0.08 | 87 | 1010.3 | |
| 20260507033016 | 66 | 0.0 | 1.0 | 0.00 | 0.08 | 0.08 | 87 | 1010.1 | |
| 20260507031516 | 66 | 0.0 | 1.0 | 0.00 | 0.08 | 0.08 | 87 | 1009.9 | |
| 20260507030016 | 66 | 0.0 | 2.0 | 0.00 | 0.08 | 0.08 | 87 | 1009.7 | |
| 20260507024516 | 66 | 0.0 | 1.0 | 0.00 | 0.08 | 0.08 | 86 | 1009.6 | |
| 20260507023036 | 66 | 0.0 | 0.0 | 0.00 | 0.08 | 0.08 | 86 | 1009.8 | |
| 20260507021516 | 67 | 0.0 | 0.0 | 0.00 | 0.08 | 0.08 | 86 | 1010.0 | |
| 20260507020016 | 67 | 0.0 | 0.0 | 0.00 | 0.08 | 0.08 | 85 | 1010.1 | |
| 20260507014516 | 67 | 0.0 | 2.0 | 0.00 | 0.08 | 0.08 | 85 | 1010.1 | |
| 20260507013016 | 67 | 0.0 | 0.0 | 0.00 | 0.08 | 0.08 | 84 | 1010.2 | |
| 20260507011517 | 67 | 0.0 | 0.0 | 0.00 | 0.08 | 0.08 | 84 | 1010.1 | |
| 20260507010036 | 67 | 0.0 | 1.0 | 0.00 | 0.08 | 0.08 | 83 | 1009.6 | |
| 20260507004516 | 68 | 0.0 | 2.0 | 0.00 | 0.08 | 0.08 | 82 | 1009.9 | |
| 20260507003016 | 68 | 0.0 | 1.0 | 0.00 | 0.08 | 0.08 | 81 | 1010.2 | |
| 20260507001515 | 69 | 0.0 | 2.0 | 0.00 | 0.08 | 0.08 | 80 | 1010.2 | |
| 20260507000016 | 69 | 0.0 | 1.0 | 0.00 | 0.08 | 0.08 | 79 | 1009.9 | |
| 20260506234516 | 70 | 135 | 1.0 | 2.0 | 0.00 | 0.08 | 0.08 | 78 | 1009.7 |
| 20260506233015 | 70 | 225 | 1.0 | 3.0 | 0.00 | 0.08 | 0.08 | 77 | 1009.7 |
| 20260506231516 | 71 | 0.0 | 3.0 | 0.00 | 0.08 | 0.08 | 76 | 1009.6 | |
| 20260506230015 | 71 | 68 | 1.0 | 4.0 | 0.00 | 0.08 | 0.08 | 76 | 1009.6 |
| 20260506224515 | 71 | 0.0 | 2.0 | 0.00 | 0.08 | 0.08 | 77 | 1009.7 | |
| 20260506223016 | 71 | 0.0 | 2.0 | 0.00 | 0.08 | 0.08 | 77 | 1009.7 | |
| 20260506221516 | 71 | 158 | 1.0 | 4.0 | 0.00 | 0.08 | 0.08 | 76 | 1009.8 |
| 20260506220016 | 71 | 158 | 1.0 | 3.0 | 0.00 | 0.08 | 0.08 | 76 | 1009.6 |
| 20260506214516 | 71 | 248 | 1.0 | 4.0 | 0.00 | 0.08 | 0.08 | 77 | 1009.9 |
| 20260506213015 | 71 | 248 | 1.0 | 4.0 | 0.00 | 0.08 | 0.08 | 77 | 1009.8 |
| 20260506211515 | 71 | 270 | 1.0 | 3.0 | 0.00 | 0.08 | 0.08 | 78 | 1009.9 |
| 20260506210035 | 70 | 248 | 1.0 | 4.0 | 0.00 | 0.08 | 0.08 | 80 | 1009.8 |
| 20260506204536 | 69 | 0.0 | 2.0 | 0.00 | 0.08 | 0.08 | 82 | 1009.9 | |
| 20260506203035 | 68 | 248 | 1.0 | 2.0 | 0.00 | 0.08 | 0.08 | 84 | 1009.8 |
| 20260506201515 | 68 | 0.0 | 2.0 | 0.00 | 0.08 | 0.08 | 84 | 1010.0 | |
| 20260506200015 | 68 | 248 | 1.0 | 3.0 | 0.00 | 0.08 | 0.08 | 84 | 1010.2 |
| 20260506194515 | 68 | 0.0 | 1.0 | 0.00 | 0.08 | 0.08 | 85 | 1009.6 | |
| 20260506193015 | 67 | 135 | 1.0 | 3.0 | 0.00 | 0.08 | 0.08 | 84 | 1009.8 |
| 20260506191515 | 67 | 225 | 1.0 | 4.0 | 0.00 | 0.08 | 0.08 | 85 | 1010.0 |
| 20260506190016 | 66 | 315 | 1.0 | 3.0 | 0.00 | 0.08 | 0.08 | 85 | 1010.4 |
| 20260506184517 | 66 | 203 | 1.0 | 5.0 | 0.00 | 0.08 | 0.08 | 85 | 1010.3 |
| 20260506183017 | 66 | 315 | 1.0 | 4.0 | 0.00 | 0.08 | 0.08 | 84 | 1010.9 |
| 20260506181517 | 66 | 338 | 1.0 | 6.0 | 0.00 | 0.08 | 0.08 | 84 | 1010.8 |
| 20260506180017 | 67 | 225 | 1.0 | 5.0 | 0.00 | 0.08 | 0.08 | 85 | 1011.1 |
| 20260506174517 | 66 | 248 | 1.0 | 3.0 | 0.00 | 0.08 | 0.08 | 88 | 1011.0 |
| 20260506173037 | 65 | 0 | 1.0 | 3.0 | 0.00 | 0.08 | 0.08 | 89 | 1011.0 |
| 20260506171517 | 64 | 0 | 1.0 | 6.0 | 0.00 | 0.08 | 0.08 | 88 | 1011.0 |
| 20260506170037 | 64 | 0 | 1.0 | 5.0 | 0.00 | 0.08 | 0.08 | 89 | 1011.1 |
| 20260506164517 | 64 | 0 | 1.0 | 3.0 | 0.00 | 0.08 | 0.08 | 89 | 1011.4 |
| 20260506163017 | 64 | 0.0 | 2.0 | 0.00 | 0.08 | 0.08 | 91 | 1011.8 | |
| 20260506161537 | 63 | 0 | 1.0 | 4.0 | 0.00 | 0.08 | 0.08 | 90 | 1011.4 |
| 20260506160017 | 63 | 0 | 1.0 | 4.0 | 0.00 | 0.08 | 0.08 | 90 | 1011.5 |
| 20260506154517 | 63 | 0 | 1.0 | 4.0 | 0.01 | 0.08 | 0.08 | 90 | 1011.2 |
| 20260506153017 | 63 | 0 | 1.0 | 4.0 | 0.03 | 0.08 | 0.08 | 90 | 1011.9 |
| 20260506151517 | 62 | 0.0 | 2.0 | 0.05 | 0.08 | 0.08 | 89 | 1012.1 | |
| 20260506150017 | 62 | 0 | 1.0 | 6.0 | 0.06 | 0.08 | 0.08 | 88 | 1012.5 |
| 20260506144516 | 63 | 0 | 1.0 | 3.0 | 0.07 | 0.07 | 0.07 | 86 | 1012.4 |
| 20260506143017 | 63 | 0.0 | 2.0 | 0.05 | 0.05 | 0.05 | 85 | 1012.7 | |
| 20260506141537 | 64 | 0 | 1.0 | 3.0 | 0.03 | 0.03 | 0.03 | 84 | 1012.4 |
| 20260506140017 | 64 | 0 | 1.0 | 3.0 | 0.02 | 0.02 | 0.02 | 81 | 1012.0 |
| 20260506134516 | 64 | 0 | 1.0 | 6.0 | 0.00 | 0.00 | 0.00 | 78 | 1012.3 |
| 20260506133016 | 64 | 0 | 1.0 | 4.0 | 0.00 | 0.00 | 0.00 | 79 | 1012.1 |
| 20260506131516 | 64 | 0 | 1.0 | 3.0 | 0.00 | 0.00 | 0.00 | 79 | 1012.1 |
| 20260506130016 | 65 | 0 | 1.0 | 8.0 | 0.00 | 0.00 | 0.00 | 80 | 1011.9 |
| 20260506124556 | 65 | 0 | 1.0 | 3.0 | 0.00 | 0.00 | 0.00 | 77 | 1012.1 |
| 20260506123016 | 65 | 0 | 1.0 | 4.0 | 0.00 | 0.00 | 0.00 | 75 | 1012.0 |
| 20260506121516 | 65 | 0 | 1.0 | 6.0 | 0.00 | 0.00 | 0.00 | 74 | 1011.9 |
| 20260506120016 | 64 | 0 | 1.0 | 3.0 | 0.00 | 0.00 | 0.00 | 75 | 1011.8 |
| 20260506114516 | 64 | 0 | 1.0 | 4.0 | 0.00 | 0.00 | 0.00 | 75 | 1011.9 |
| 20260506113016 | 64 | 0 | 1.0 | 6.0 | 0.00 | 0.00 | 0.00 | 75 | 1011.9 |
| 20260506111517 | 64 | 0 | 1.0 | 4.0 | 0.00 | 0.00 | 0.00 | 75 | 1011.8 |
| 20260506110016 | 63 | 0 | 1.0 | 4.0 | 0.00 | 0.00 | 0.00 | 74 | 1011.9 |
| 20260506104517 | 63 | 0 | 1.0 | 4.0 | 0.00 | 0.00 | 0.00 | 74 | 1011.8 |
| 20260506103016 | 63 | 0 | 1.0 | 3.0 | 0.00 | 0.00 | 0.00 | 74 | 1012.0 |
| 20260506101516 | 63 | 0 | 1.0 | 5.0 | 0.00 | 0.00 | 0.00 | 74 | 1011.9 |
| 20260506100016 | 63 | 0 | 1.0 | 4.0 | 0.00 | 0.00 | 0.00 | 75 | 1011.8 |
| 20260506094516 | 63 | 0 | 1.0 | 4.0 | 0.00 | 0.00 | 0.00 | 75 | 1011.7 |
| 20260506093036 | 64 | 0 | 1.0 | 5.0 | 0.00 | 0.00 | 0.00 | 75 | 1011.6 |
| 20260506091516 | 64 | 0 | 1.0 | 3.0 | 0.00 | 0.00 | 0.00 | 76 | 1011.7 |
| 20260506090036 | 64 | 0 | 1.0 | 4.0 | 0.00 | 0.00 | 0.00 | 75 | 1011.8 |
| 20260506084536 | 64 | 0 | 1.0 | 5.0 | 0.00 | 0.00 | 0.00 | 75 | 1011.9 |
| 20260506083016 | 64 | 0 | 1.0 | 6.0 | 0.00 | 0.00 | 0.00 | 74 | 1012.1 |
| 20260506081536 | 64 | 0 | 1.0 | 8.0 | 0.00 | 0.00 | 0.00 | 74 | 1012.0 |
| 20260506073016 | 65 | 0 | 1.0 | 6.0 | 0.00 | 0.00 | 0.00 | 72 | 1012.2 |
| 20260506071516 | 65 | 0 | 1.0 | 6.0 | 0.00 | 0.00 | 0.00 | 72 | 1012.3 |